Temperature
18 18 19 20 19 19 20 22 25 26 25 26 25 25 25 25 24 21 21 20 20 21 21 19 19 18 16 16 15 15 15 15 14 13 13 13 13 13 12 13 13 13 13 13 14 14 14 14 13
18 18 19 20 19 19 21 23 25 26 25 24 24 25 25 26 24 21 20 20 19 20 20 20 19 17 16 16 15 15 15 14 14 13 13 13 13 13 13 13 13 13 13 14 14 14 14 14 14
18 18 19 19 19 19 21 24 25 25 24 24 25 25 26 25 24 21 21 20 19 19 20 19 19 17 16 16 15 15 15 14 14 13 13 13 13 13 12 13 13 13 13 14 14 14 14 14 15
17 18 19 19 19 21 22 24 25 24 24 24 25 25 26 24 23 21 21 20 19 18 19 19 18 17 16 16 16 16 16 15 14 14 13 13 13 13 13 13 13 13 13 14 14 14 14 14 14
17 18 18 18 19 21 23 25 24 24 24 25 25 24 24 23 22 21 20 20 19 18 18 18 18 17 16 16 16 16 16 15 14 14 14 13 13 13 13 13 13 13 14 14 14 14 14 14 14
18 19 18 18 20 22 23 25 25 23 24 24 24 24 24 22 21 21 20 20 19 18 18 18 18 17 16 16 16 16 17 16 15 14 14 14 13 14 14 13 13 14 14 14 14 13 13 13 13
18 18 18 19 20 21 23 25 24 23 23 24 24 24 24 21 21 20 20 19 19 18 18 18 18 17 16 17 17 16 17 17 16 15 14 14 14 14 14 14 14 14 14 14 13 13 13 13 13
18 18 18 19 19 21 23 25 24 23 23 24 24 23 22 20 20 20 20 20 19 18 18 18 18 17 16 16 17 17 17 17 16 16 15 14 14 14 14 14 14 14 14 14 13 13 13 13 13
17 16 17 18 19 21 23 23 24 23 23 23 23 23 21 21 20 20 19 19 19 18 17 17 17 17 16 16 16 17 17 17 16 16 15 15 14 14 14 14 14 14 14 14 13 13 13 13 13
16 15 17 19 20 21 22 22 23 22 22 22 22 23 21 21 20 19 19 19 18 18 17 17 16 16 15 15 16 16 16 17 16 16 15 15 14 13 14 14 14 14 14 14 13 13 13 13 13
16 16 18 19 20 21 20 20 21 21 20 22 22 23 22 21 21 20 20 20 19 18 18 17 17 16 15 15 15 15 16 16 16 15 15 14 14 13 14 14 14 14 14 14 13 13 13 13 13
17 17 18 19 19 19 19 19 19 20 20 21 21 21 21 21 21 21 21 21 20 19 18 17 17 16 16 15 15 15 15 15 15 14 14 14 14 14 14 13 14 13 13 13 13 12 12 13 13
16 17 18 18 18 17 17 17 18 18 19 19 19 20 20 20 20 21 21 21 21 20 19 18 17 16 16 15 15 14 14 14 14 14 13 13 14 14 13 13 13 12 12 12 12 12 13 13 13
16 16 17 17 17 17 17 17 17 17 18 18 18 19 19 19 20 20 20 21 21 20 19 18 18 17 16 16 15 15 14 14 14 14 13 13 13 13 13 13 12 12 12 12 12 13 13 13 13
15 14 15 16 16 17 16 15 16 17 17 17 18 18 19 19 19 19 20 20 21 21 20 19 18 17 16 16 16 15 14 14 14 14 13 13 13 13 13 12 12 12 12 12 12 12 13 13 12
14 13 13 16 17 17 16 14 17 18 18 18 18 18 19 19 19 19 19 20 20 21 20 19 18 18 17 17 17 16 15 14 14 14 13 13 13 13 12 12 12 11 11 12 12 12 12 12 12
13 13 14 16 17 17 15 14 17 18 19 18 18 19 19 19 19 19 19 20 20 20 20 20 19 18 18 18 18 16 15 15 14 14 13 13 13 13 12 12 11 11 11 12 12 12 12 12 12
14 14 15 16 17 16 15 15 16 17 18 18 18 18 18 19 19 19 19 19 20 20 20 20 19 19 18 18 17 16 15 14 14 14 13 13 13 13 12 12 11 11 11 11 11 11 11 11 11
14 13 13 15 16 15 14 14 15 16 17 17 18 18 18 18 18 18 19 19 19 19 20 20 19 19 18 17 17 16 15 14 14 14 13 13 13 13 12 12 11 11 11 11 11 11 11 10 10
13 12 12 14 15 14 13 13 14 15 15 16 17 17 18 18 18 18 18 18 18 19 19 19 19 18 18 17 18 17 15 14 14 14 13 13 13 12 12 12 12 11 11 11 11 10 10 10 10
12 11 12 12 12 13 12 12 14 16 16 16 17 17 17 17 17 17 17 18 18 18 18 18 18 18 17 17 16 14 14 14 13 13 13 13 12 12 12 12 11 11 11 11 10 10 10 9 9
11 13 12 12 10 10 12 10 13 15 16 16 17 17 17 17 17 17 17 17 17 18 18 18 18 17 17 16 15 14 14 14 14 13 13 13 12 12 11 11 11 11 11 10 10 10 9 9 8
11 11 11 11 10 8 9 9 11 14 14 15 16 17 17 17 17 17 17 17 17 17 17 17 17 17 17 16 15 14 15 15 14 13 13 12 12 11 11 11 11 11 11 10 10 9 9 8 7
11 10 9 9 8 6 8 9 10 13 15 16 17 17 17 17 17 17 17 16 16 17 17 17 17 17 16 15 14 14 14 14 14 13 12 12 11 11 11 10 10 10 10 10 9 9 8 7 7
10 8 7 7 7 7 10 11 11 15 16 16 16 17 17 17 16 16 16 15 15 16 16 16 16 16 16 15 13 13 12 13 14 13 12 12 11 11 10 10 10 10 10 9 9 8 8 7 6
9 8 7 8 9 10 12 11 13 16 16 17 17 17 16 16 16 15 15 14 14 15 15 15 15 15 15 14 12 12 11 12 12 12 12 12 12 11 10 10 9 9 9 9 8 8 7 6 5
8 8 9 8 8 7 9 11 13 15 15 15 15 16 16 16 15 15 14 14 14 14 14 14 14 14 13 12 12 11 11 11 11 11 11 12 12 11 10 9 9 9 9 8 7 7 6 5 5
10 9 7 6 5 7 9 11 12 14 14 14 14 14 15 15 15 14 13 13 13 13 13 13 13 13 12 11 11 11 11 11 11 11 11 11 11 11 10 9 9 8 8 7 7 6 5 5 4
8 8 8 7 7 6 7 10 14 13 13 13 13 14 15 14 14 13 12 12 12 12 13 13 12 12 11 11 10 10 10 10 10 10 11 11 11 10 9 9 8 8 7 7 6 5 5 4 3
9 8 8 6 6 7 7 9 13 13 13 12 12 13 13 13 13 12 12 11 11 11 12 12 11 11 11 10 10 10 10 10 10 10 10 10 10 9 8 8 8 7 7 6 5 4 3 2 2
Wind_Speed
17 17 9 3 4 5 10 12 8 2 2 6 9 6 10 10 6 6 5 8 18 19 21 21 21 19 17 15 14 12 11 11 12 12 13 13 12 12 12 12 12 12 12 12 12 12 12 12 11
12 13 6 4 5 7 11 13 7 2 5 8 5 5 9 7 8 9 6 10 18 19 20 19 21 20 18 16 14 12 11 12 13 13 13 12 11 11 11 12 12 12 12 12 12 12 11 11 10
10 12 5 4 6 11 12 6 4 8 6 2 6 7 7 2 8 7 9 10 16 17 19 21 22 20 18 17 15 13 12 12 12 12 11 11 10 10 10 10 11 11 10 10 10 9 9 9 8
6 5 5 7 13 13 13 12 5 5 1 5 5 6 3 7 5 9 11 10 15 16 19 22 22 20 18 17 15 14 13 12 12 11 10 9 8 8 8 10 11 10 9 9 8 8 8 7 6
4 4 8 11 15 14 13 11 7 1 5 4 3 7 3 7 11 14 10 10 13 15 20 22 22 21 19 17 15 14 13 12 11 10 10 8 7 6 8 11 11 9 8 8 8 7 7 6 6
5 5 8 12 15 15 14 14 4 5 9 8 3 8 1 9 10 11 10 8 11 16 18 21 22 21 20 18 16 14 14 13 11 10 9 8 7 6 10 13 11 9 7 7 6 7 7 7 7
7 7 12 13 12 12 12 11 8 7 9 10 5 6 3 9 9 9 10 8 10 15 17 15 18 19 20 20 18 15 14 13 12 10 10 10 9 10 13 13 11 9 8 7 8 9 8 7 6
6 5 12 13 14 13 12 8 7 6 8 8 2 3 4 6 7 8 9 7 10 12 16 14 15 17 16 16 18 17 14 13 12 11 13 11 10 12 14 13 12 10 9 9 8 7 6 6 5
7 7 11 11 11 10 10 10 3 4 6 9 4 3 8 6 5 7 7 5 7 8 12 15 13 14 16 16 17 17 15 14 13 13 14 12 11 13 12 14 13 12 11 9 7 6 5 5 3
6 8 12 10 11 9 8 8 3 4 9 10 9 6 10 8 7 7 9 9 9 8 9 13 15 13 13 14 15 13 13 13 14 13 13 12 10 12 15 15 14 12 11 10 7 4 1 1 3
7 8 10 12 12 9 8 9 6 7 8 8 10 10 10 9 8 8 9 10 13 12 9 8 12 12 11 8 12 10 11 13 14 16 16 11 10 12 13 11 11 11 10 8 6 3 3 5 4
10 9 10 10 8 7 7 8 10 10 9 10 10 8 4 6 7 8 9 8 10 14 13 9 10 10 10 8 8 7 7 8 8 12 15 9 6 5 7 7 10 10 7 5 3 3 6 6 8
14 11 10 8 7 7 9 9 11 13 13 13 13 12 10 7 6 8 8 8 7 10 14 12 11 11 10 9 7 7 5 7 8 10 12 11 5 4 4 5 6 8 8 5 4 5 5 5 6
6 8 10 10 8 8 11 12 12 13 13 13 13 13 12 11 9 10 10 8 8 8 11 12 13 12 11 9 8 8 6 8 9 9 10 13 9 5 4 5 5 6 8 6 5 5 4 4 3
6 9 10 11 12 8 9 13 16 18 16 16 15 13 13 13 12 12 12 10 9 9 11 12 14 13 12 11 9 7 6 8 6 9 13 12 12 10 7 5 5 5 8 8 7 5 4 3 3
6 7 7 9 14 12 10 12 11 13 15 16 15 14 13 14 14 14 14 12 10 9 11 13 14 14 14 11 9 7 5 7 7 11 12 12 15 15 9 6 5 7 9 6 4 4 4 4 5
6 7 10 9 9 7 10 10 10 9 7 8 9 10 11 12 13 14 14 13 12 11 10 12 14 15 15 13 10 8 7 8 8 11 10 12 16 16 11 5 5 9 6 4 5 5 4 4 4
5 8 9 8 5 6 10 11 10 11 12 11 10 10 10 10 11 11 11 12 12 11 10 11 13 14 15 13 10 8 8 8 7 7 10 14 15 16 12 7 7 8 6 5 5 4 4 3 3
9 9 11 10 9 6 10 14 13 13 14 14 13 12 12 12 11 10 10 10 10 10 10 10 12 13 13 12 12 12 9 8 7 8 12 14 15 15 11 7 7 6 5 5 5 4 5 4 4
7 9 11 11 8 9 12 18 16 18 19 18 15 14 13 13 12 13 12 11 11 11 10 10 10 13 13 12 11 9 6 6 6 7 8 12 14 14 12 9 8 8 7 7 6 4 3 2 4
8 9 9 10 13 9 11 13 13 13 17 16 15 14 12 13 13 13 13 13 12 12 11 10 10 11 13 13 10 8 7 6 4 6 6 7 11 12 12 10 8 9 7 6 6 5 4 2 2
6 4 6 8 7 6 6 8 8 8 8 8 10 11 11 11 12 12 12 13 13 13 12 11 11 11 13 15 14 16 12 9 7 7 7 8 8 10 13 12 10 9 8 8 6 6 4 3 2
2 6 6 7 7 7 6 8 11 8 11 11 11 11 11 11 11 11 11 12 11 11 12 12 12 12 14 15 16 16 11 8 10 11 11 8 8 9 12 12 9 9 8 8 7 6 5 3 3
2 1 5 5 4 7 8 9 11 5 9 6 4 4 5 7 7 6 5 5 7 7 8 10 13 13 14 15 16 16 15 15 17 16 14 11 9 9 10 12 9 7 8 8 7 6 5 3 3
4 3 3 4 5 9 10 10 11 7 6 5 6 6 6 5 4 3 3 5 6 8 7 8 11 13 15 15 16 15 15 17 19 18 16 15 12 10 11 11 9 8 7 7 6 5 5 3 2
9 6 4 4 5 4 5 10 8 7 7 7 7 7 7 7 6 3 2 4 6 8 7 8 10 11 14 15 14 14 14 14 13 13 13 13 12 11 11 11 10 8 8 7 5 5 4 3 2
7 7 5 5 7 7 8 8 9 11 13 10 9 9 10 9 7 3 2 3 6 7 7 8 10 11 13 14 13 13 15 15 15 13 12 11 12 13 13 12 11 9 7 7 6 4 4 3 2
6 5 4 3 4 7 9 9 6 6 8 9 6 4 6 7 5 1 2 4 6 7 6 8 10 11 12 13 13 12 14 15 16 14 14 15 15 15 14 13 11 9 8 7 5 3 4 2 1
9 5 5 5 5 5 7 6 3 9 10 10 8 6 6 3 1 1 2 4 6 7 5 7 10 11 13 14 14 14 14 15 15 13 14 15 15 15 14 12 10 9 8 6 5 3 3 2 2
10 10 9 5 7 6 7 9 5 7 6 8 8 8 6 3 1 2 1 3 5 7 5 6 9 12 14 15 15 14 14 15 15 14 15 15 15 14 13 11 10 8 7 6 4 2 1 2 3
Wind_Direction
300 283 270 266 251 238 249 258 260 80 14 6 15 351 317 326 35 93 184 123 124 133 141 145 142 139 136 130 124 118 114 115 112 109 109 110 110 109 105 93 81 73 72 72 71 69 67 66 65
289 288 287 247 242 252 255 248 234 161 64 29 337 268 267 275 101 114 117 115 130 134 143 146 143 142 139 135 130 124 121 120 115 113 113 111 111 112 109 96 87 81 79 78 75 71 69 67 65
265 271 270 240 229 244 267 312 36 82 61 294 267 234 239 352 81 106 128 136 132 136 146 143 147 145 143 140 137 132 130 129 121 114 112 111 113 115 112 103 98 92 87 81 75 70 68 66 65
259 238 235 241 247 243 254 279 72 70 196 218 270 277 166 68 66 108 132 152 137 141 139 144 148 148 147 146 145 141 137 136 126 115 110 109 114 121 118 113 111 102 89 76 66 62 62 64 64
232 251 231 234 243 253 267 274 112 127 274 250 229 281 71 91 102 118 146 162 145 140 136 150 150 152 152 151 151 149 147 146 137 125 115 107 108 123 130 128 121 108 89 71 61 59 63 66 65
213 223 232 235 242 243 246 262 178 195 260 265 245 273 109 127 115 131 145 166 146 134 139 151 155 157 157 155 155 156 156 156 151 140 126 108 97 117 136 133 126 112 92 76 67 68 74 73 66
234 234 242 247 252 251 246 235 181 203 246 260 240 253 134 96 102 128 145 176 143 135 140 150 159 161 161 159 158 160 163 163 161 155 136 117 100 108 128 131 126 115 100 87 82 84 86 84 76
244 257 248 246 255 263 273 268 175 200 256 274 312 287 59 91 125 133 142 153 137 138 143 154 160 165 165 164 161 162 165 166 166 157 142 136 127 124 127 124 123 119 112 103 98 100 104 102 90
251 244 243 241 248 261 269 281 199 171 262 283 239 218 106 96 115 123 124 123 136 150 152 160 165 168 168 168 166 163 164 166 163 155 157 162 167 154 135 127 127 126 123 118 115 121 127 124 105
216 238 239 252 269 284 284 286 272 227 219 247 261 217 133 144 162 169 167 170 165 177 176 167 169 167 168 168 162 168 169 167 172 173 179 196 194 150 135 135 135 137 134 130 134 146 188 156 82
210 234 251 260 275 302 319 322 312 267 249 234 232 222 172 171 181 197 201 188 176 179 186 178 161 161 163 157 165 173 174 172 192 185 189 189 129 125 138 139 143 148 149 152 167 180 84 57 51
242 245 242 263 299 332 315 307 301 286 276 288 299 309 269 188 199 210 214 224 185 174 177 177 156 158 163 161 171 170 170 172 193 177 176 154 143 166 167 157 164 156 139 115 92 71 67 41 37
236 257 271 278 293 299 295 283 284 281 285 287 292 295 295 279 255 258 230 216 209 170 169 173 165 166 169 168 172 172 169 170 179 163 166 156 147 167 127 106 110 109 116 106 72 57 46 37 35
273 273 268 268 260 252 256 258 257 258 263 265 266 269 270 265 255 263 263 225 210 186 168 169 171 172 171 173 175 178 174 167 170 160 171 162 160 142 108 96 92 92 91 85 79 73 49 46 29
299 290 282 261 249 239 251 253 242 246 247 251 251 249 248 247 247 248 252 245 213 195 178 172 175 174 173 176 178 181 175 169 164 162 176 168 146 126 115 113 112 115 109 86 64 63 50 47 12
239 250 253 240 218 218 219 254 254 245 231 233 238 241 242 238 234 238 244 245 234 211 187 180 177 174 172 175 183 186 180 170 165 164 172 157 137 130 123 123 125 120 105 92 74 44 52 46 24
215 242 244 244 174 190 215 252 259 272 264 246 242 242 242 239 231 229 232 235 235 226 202 181 172 172 171 173 181 191 188 174 167 165 162 144 134 133 131 128 129 118 102 92 87 58 53 42 8
212 229 250 250 167 199 240 259 270 281 278 261 250 248 249 248 243 236 233 231 231 231 215 184 170 171 168 169 178 192 194 176 162 153 144 137 138 138 133 135 127 115 110 112 112 110 74 43 350
301 315 305 304 327 312 271 271 269 268 264 255 245 241 245 251 255 249 240 239 240 234 222 193 174 172 166 171 181 190 191 168 146 136 138 140 144 143 141 135 124 123 125 119 113 114 88 33 356
276 283 284 291 302 308 291 282 273 260 254 248 246 243 241 245 250 250 243 234 234 236 223 199 178 174 171 175 182 184 155 126 114 121 129 141 146 146 144 134 130 123 116 100 90 87 105 62 33
250 258 275 295 321 307 291 284 257 250 237 236 237 238 241 245 249 251 247 237 228 229 226 208 191 179 172 166 164 142 113 98 101 118 131 140 145 142 138 131 126 126 121 118 112 96 94 118 67
255 280 285 289 295 291 308 296 269 284 285 246 221 215 223 239 247 249 247 244 233 223 219 213 197 182 169 166 170 166 167 161 161 149 140 139 139 137 133 130 128 123 120 121 117 103 96 92 100
244 21 342 311 296 290 249 257 272 230 254 247 236 220 214 228 241 245 244 241 238 227 215 207 195 179 167 170 175 174 168 145 135 136 142 144 140 131 128 128 126 125 123 119 114 107 91 83 87
219 48 283 260 274 266 220 219 273 224 246 264 288 273 233 235 246 255 268 275 263 250 228 207 190 174 167 171 175 173 167 154 148 151 154 152 143 132 127 127 124 118 118 117 118 112 101 89 86
197 184 253 223 227 246 226 224 251 253 265 274 275 276 279 280 284 296 328 313 291 268 240 210 187 170 167 172 176 175 170 157 157 157 158 154 150 144 139 134 129 123 119 120 122 122 125 124 107
195 198 225 259 259 278 251 241 253 255 253 246 236 232 241 253 261 278 326 317 298 275 241 202 182 167 168 175 174 174 158 153 156 157 158 156 153 146 141 135 129 126 125 128 129 129 136 128 155
176 217 276 315 302 282 254 259 278 262 264 256 241 226 226 234 231 241 300 309 299 283 248 201 181 173 173 172 166 162 150 149 150 152 152 147 142 142 138 132 130 129 128 132 139 143 151 152 190
242 198 197 213 266 276 270 256 261 343 0 349 323 280 249 242 232 255 345 332 307 287 249 198 184 178 170 163 154 149 144 142 146 151 150 143 141 140 136 131 128 126 126 128 128 125 121 120 244
206 223 211 234 251 268 287 265 324 332 319 311 305 298 279 260 156 27 345 337 320 303 255 197 186 173 158 144 136 135 136 139 143 144 139 137 136 136 133 131 127 128 132 133 136 158 153 178 270
205 202 198 218 239 233 268 274 284 296 332 332 322 318 315 303 291 296 333 348 321 299 263 203 179 155 138 130 130 130 133 135 136 133 130 130 130 127 127 125 122 121 116 111 112 119 130 231 260
Height
1507 1507 1508 1509 1509 1510 1505 1492 1479 1479 1483 1483 1484 1485 1486 1486 1490 1499 1497 1497 1496 1496 1498 1501 1504 1506 1508 1509 1511 1512 1513 1513 1515 1516 1518 1520 1522 1523 1524 1525 1525 1524 1524 1524 1525 1526 1527 1528 1529
1505 1507 1508 1507 1509 1513 1501 1484 1479 1479 1483 1486 1488 1489 1489 1486 1487 1492 1495 1496 1496 1496 1498 1501 1504 1506 1508 1510 1511 1513 1513 1514 1515 1516 1518 1520 1522 1524 1525 1525 1526 1526 1526 1526 1526 1527 1528 1529 1530
1504 1506 1507 1503 1504 1507 1497 1479 1478 1479 1484 1488 1488 1487 1487 1486 1488 1490 1493 1496 1497 1497 1499 1501 1504 1506 1508 1510 1511 1513 1514 1515 1516 1517 1518 1520 1522 1524 1525 1526 1527 1527 1527 1527 1528 1528 1529 1530 1530
1503 1505 1504 1503 1500 1492 1487 1481 1478 1482 1486 1488 1488 1486 1485 1486 1489 1491 1493 1496 1497 1498 1498 1502 1504 1506 1508 1509 1511 1512 1514 1515 1516 1518 1519 1521 1522 1524 1526 1527 1528 1529 1529 1529 1529 1529 1530 1531 1531
1502 1502 1501 1500 1494 1487 1481 1478 1479 1484 1486 1486 1487 1485 1485 1486 1488 1491 1493 1496 1497 1498 1498 1502 1504 1506 1508 1509 1511 1512 1513 1515 1517 1518 1520 1521 1523 1524 1526 1527 1529 1529 1530 1530 1530 1531 1531 1531 1532
1500 1497 1500 1498 1489 1483 1480 1478 1478 1483 1486 1486 1486 1486 1487 1487 1489 1491 1493 1496 1498 1498 1498 1501 1503 1505 1507 1509 1510 1512 1513 1515 1517 1518 1520 1521 1523 1525 1526 1527 1528 1530 1531 1531 1532 1532 1532 1532 1532
1496 1494 1494 1490 1486 1481 1475 1474 1476 1481 1485 1485 1485 1486 1487 1487 1488 1491 1493 1496 1498 1497 1497 1500 1502 1504 1506 1508 1510 1511 1512 1514 1516 1518 1520 1522 1523 1525 1526 1527 1528 1529 1531 1532 1532 1533 1533 1532 1532
1491 1490 1488 1486 1485 1480 1473 1472 1473 1479 1483 1484 1484 1485 1486 1489 1489 1491 1494 1496 1497 1498 1497 1499 1501 1503 1505 1507 1509 1510 1512 1513 1515 1517 1519 1521 1523 1524 1525 1527 1528 1529 1530 1531 1532 1532 1532 1532 1531
1489 1491 1487 1483 1481 1477 1473 1472 1473 1477 1482 1483 1483 1486 1487 1488 1489 1491 1493 1495 1497 1498 1498 1498 1499 1501 1504 1506 1508 1509 1511 1512 1514 1516 1518 1520 1522 1524 1525 1526 1527 1528 1529 1530 1531 1531 1531 1531 1530
1486 1487 1482 1477 1475 1473 1471 1472 1473 1476 1479 1482 1483 1484 1484 1486 1489 1490 1491 1493 1494 1496 1498 1498 1499 1500 1503 1504 1506 1508 1510 1511 1513 1515 1517 1519 1521 1522 1523 1525 1526 1527 1528 1529 1530 1530 1530 1529 1529
1481 1481 1477 1474 1474 1473 1472 1473 1474 1476 1477 1479 1480 1481 1482 1484 1486 1488 1489 1490 1490 1492 1495 1498 1499 1500 1502 1503 1505 1507 1508 1510 1512 1514 1516 1518 1520 1521 1522 1524 1524 1525 1526 1527 1528 1528 1528 1528 1527
1477 1475 1474 1473 1473 1473 1474 1475 1476 1476 1477 1477 1477 1478 1479 1480 1482 1484 1486 1488 1489 1489 1491 1495 1497 1498 1500 1502 1503 1505 1506 1508 1510 1513 1515 1516 1518 1520 1521 1521 1522 1523 1524 1525 1526 1527 1526 1526 1525
1475 1474 1473 1472 1473 1474 1476 1477 1477 1476 1476 1476 1475 1474 1475 1477 1479 1481 1484 1485 1487 1487 1488 1490 1493 1495 1498 1500 1502 1504 1505 1507 1509 1511 1513 1515 1516 1518 1520 1520 1521 1522 1523 1524 1525 1525 1525 1524 1522
1473 1474 1473 1472 1471 1473 1475 1475 1477 1474 1474 1474 1473 1472 1472 1474 1476 1478 1480 1481 1483 1485 1486 1487 1489 1492 1494 1496 1498 1501 1503 1506 1508 1509 1512 1514 1515 1516 1517 1519 1520 1521 1522 1523 1523 1523 1522 1521 1520
1476 1477 1474 1470 1469 1470 1473 1471 1470 1468 1469 1469 1469 1469 1469 1470 1472 1474 1475 1477 1479 1481 1482 1483 1485 1488 1490 1492 1495 1497 1500 1503 1505 1507 1510 1512 1513 1514 1515 1517 1519 1520 1521 1521 1521 1521 1520 1519 1518
1477 1478 1476 1463 1462 1464 1472 1470 1463 1460 1460 1461 1462 1463 1464 1464 1466 1468 1470 1472 1474 1476 1477 1478 1480 1483 1485 1488 1490 1493 1496 1499 1502 1504 1507 1509 1510 1512 1514 1515 1517 1518 1519 1520 1519 1518 1518 1517 1516
1477 1477 1470 1460 1456 1460 1465 1464 1459 1456 1455 1455 1456 1457 1457 1458 1459 1461 1463 1465 1468 1471 1473 1474 1475 1477 1480 1483 1485 1488 1492 1495 1498 1500 1503 1505 1506 1509 1511 1513 1515 1516 1517 1517 1517 1517 1516 1516 1515
1471 1471 1465 1460 1454 1458 1461 1459 1456 1454 1453 1452 1452 1452 1452 1452 1453 1454 1456 1458 1461 1464 1467 1468 1468 1471 1474 1477 1480 1483 1487 1490 1493 1496 1498 1500 1503 1506 1508 1510 1512 1514 1515 1515 1515 1515 1515 1515 1513
1466 1470 1469 1461 1455 1458 1459 1456 1453 1450 1448 1446 1445 1445 1446 1446 1447 1448 1449 1451 1453 1456 1459 1461 1462 1464 1467 1470 1473 1476 1480 1484 1488 1490 1493 1496 1499 1502 1504 1507 1509 1511 1513 1513 1514 1514 1514 1513 1512
1469 1473 1472 1466 1459 1460 1458 1452 1448 1442 1438 1437 1437 1438 1439 1440 1441 1442 1443 1444 1446 1448 1451 1454 1456 1458 1460 1463 1468 1472 1476 1479 1482 1485 1488 1492 1496 1498 1501 1503 1506 1508 1510 1511 1512 1512 1512 1511 1511
1472 1474 1473 1471 1466 1463 1462 1450 1438 1426 1425 1427 1429 1430 1432 1433 1434 1435 1436 1437 1439 1441 1444 1446 1449 1452 1454 1458 1463 1467 1469 1472 1475 1479 1483 1488 1492 1495 1497 1500 1503 1505 1507 1509 1510 1510 1510 1509 1509
1472 1468 1470 1471 1475 1473 1465 1463 1436 1426 1422 1421 1421 1422 1424 1426 1427 1428 1429 1430 1431 1433 1437 1440 1443 1446 1448 1452 1455 1457 1459 1462 1466 1471 1477 1483 1488 1491 1494 1497 1500 1502 1505 1506 1508 1508 1508 1508 1507
1470 1471 1474 1474 1476 1478 1470 1471 1437 1426 1423 1418 1415 1415 1417 1419 1421 1421 1422 1423 1424 1426 1429 1432 1436 1439 1441 1444 1448 1451 1454 1456 1460 1466 1473 1478 1483 1487 1490 1493 1496 1499 1502 1504 1505 1506 1506 1506 1505
1469 1475 1478 1478 1480 1485 1467 1463 1438 1422 1414 1410 1410 1411 1412 1414 1415 1415 1416 1416 1418 1419 1421 1424 1427 1430 1433 1438 1442 1445 1447 1449 1454 1459 1467 1473 1478 1482 1486 1490 1493 1496 1499 1501 1502 1503 1504 1503 1502
1472 1480 1485 1482 1482 1473 1453 1447 1429 1411 1407 1407 1408 1409 1410 1410 1411 1411 1411 1412 1413 1414 1415 1416 1419 1421 1425 1431 1436 1439 1441 1444 1448 1453 1460 1465 1471 1477 1481 1486 1489 1493 1496 1498 1499 1500 1500 1500 1499
1473 1477 1481 1477 1466 1451 1436 1433 1416 1402 1401 1401 1402 1404 1405 1406 1407 1408 1408 1408 1409 1409 1409 1410 1412 1415 1419 1425 1430 1434 1437 1439 1443 1449 1455 1461 1467 1472 1477 1482 1486 1490 1492 1494 1496 1496 1497 1496 1495
1471 1475 1471 1474 1469 1465 1444 1425 1411 1401 1397 1396 1397 1397 1399 1401 1403 1403 1404 1404 1405 1405 1405 1405 1407 1410 1414 1420 1425 1430 1433 1435 1440 1447 1453 1458 1463 1469 1474 1479 1483 1487 1489 1491 1492 1492 1492 1492 1491
1466 1468 1475 1480 1483 1465 1438 1423 1415 1401 1400 1397 1395 1394 1395 1397 1398 1399 1400 1400 1400 1400 1400 1400 1402 1405 1410 1415 1420 1425 1429 1433 1439 1444 1450 1455 1460 1466 1471 1476 1481 1484 1486 1488 1489 1489 1489 1488 1487
1468 1469 1470 1471 1467 1467 1450 1425 1400 1400 1398 1398 1396 1394 1393 1394 1395 1396 1396 1396 1396 1396 1395 1396 1398 1401 1406 1410 1416 1421 1426 1431 1436 1442 1447 1453 1458 1464 1469 1474 1478 1481 1483 1484 1485 1485 1485 1484 1482
1458 1463 1467 1473 1468 1458 1451 1426 1402 1399 1396 1396 1396 1394 1392 1392 1392 1393 1393 1393 1392 1392 1391 1391 1394 1397 1400 1406 1412 1418 1424 1429 1434 1440 1445 1451 1456 1462 1468 1472 1476 1478 1480 1481 1482 1481 1480 1479 1478